Simultaneous Nadir Overpasses (SNOs) Predictions

Prediction of SNOs between GOES-16 and TERRA Satellite Orbit:

Table of predicted SNOs for the next 14.0 days since TLE Epoch: 10/30/2021
Index Date Time (GOES-16) GOES-16 Lat,Lon TERRA Lat,Lon Distance(km) Time Diff (sec)
1 11/01/2021 03:22:02 -0.03, -75.25 0.12, -74.53 82.18 80
2 11/03/2021 03:09:49 -0.03, -75.28 0.76, -71.58 421.58 80
3 11/03/2021 15:31:04 0.03, -75.32 0.34, -76.73 161.38 80
4 11/05/2021 15:21:31 0.02, -75.35 -0.30, -73.78 178.24 80
5 11/06/2021 03:42:55 -0.02, -75.34 -0.78, -78.98 413.90 80
6 11/08/2021 03:28:01 -0.03, -75.37 -0.18, -76.02 73.94 80
7 11/10/2021 03:15:48 -0.03, -75.41 0.48, -73.07 266.66 80
8 11/10/2021 15:37:02 0.03, -75.45 0.62, -78.23 316.24 80
9 11/12/2021 15:27:29 0.04, -75.49 0.01, -75.27 25.51 80
